Home   Weather   Bandar-Abbas   Past weeks

Flag for Iran Past Weather in Bandar-Abbas, Iran — Yesterday and Last 2 Weeks

Now
55 °F

Light rain. Mostly cloudy.


Feels Like: 52 °F
Forecast: 54 / 69 °F
Wind: 14 mph from Northeast

Location: Bandarabbass

Current Time: Jan 25, 2017 at 5:12:45 am

Latest Report: Jan 25, 2017 at 4:30 am


Visibility: 2 mi

Pressure: 30.09 "Hg

Humidity: 77%

Dew Point: 48 °F

Location of Bandar-AbbasLocation

Past Weather in Bandar-Abbas — Graph

°F

Bandar-Abbas Temperature Yesterday

Maximum temperature yesterday: 70 °F (at 12:30 pm)
Minimum temperature yesterday: 61 °F (at 11:00 pm)
Average temperature yesterday: 65 °F

High & Low Weather Summary for the Past Weeks

 TemperatureHumidityPressure
High79 °F (Jan 11, 2:30 pm)100% (Jan 11, 7:30 am)30.15 "Hg (Jan 11, 7:30 am)
Low48 °F (Jan 16, 5:30 am)16% (Jan 16, 1:00 pm)29.71 "Hg (Jan 13, 2:30 pm)
Average67 °F67%29.99 "Hg
* Reported Jan 10 3:30 am — Jan 25 3:30 am, Bandar-Abbas, Weather by CustomWeather, © 2017

Note: Actual official high and low records may vary slightly from our data, if they occured in-between our weather recording intervals... More about our weather records

Advertising

Bandar-Abbas Weather History for the Previous 24 Hours

Scroll right to see more
 ConditionsComfort  
Time TempWeatherWind HumidityBarometerVisibility
3:30 am
Wed, Jan 25
54 °FLight rain. Mostly cloudy.2 mph88%30.12 "Hg2 mi
2:30 am55 °FRain. Mostly cloudy.9 mph82%30.12 "Hg2 mi
1:30 am61 °FThunderstorms. Partly cloudy.14 mph59%30.07 "Hg3 mi
1:00 am61 °FPartly cloudy.14 mph59%30.07 "Hg4 mi
12:30 am61 °FPartly cloudy.14 mph59%30.07 "Hg4 mi
12:00 am61 °FPassing clouds.14 mph63%30.09 "Hg4 mi
11:30 pm
Tue, Jan 24
61 °FPartly cloudy.12 mph59%30.09 "Hg4 mi
11:00 pm61 °FPartly cloudy.16 mph63%30.09 "Hg4 mi
10:30 pm63 °FPartly cloudy.14 mph56%30.09 "Hg4 mi
10:00 pm63 °FPartly cloudy.16 mph59%30.07 "Hg4 mi
9:30 pm63 °FPartly cloudy.21 mph59%30.07 "Hg4 mi
9:00 pm63 °FRain. Partly cloudy.14 mph56%30.09 "Hg4 mi
8:30 pm63 °FPartly cloudy.12 mph59%30.07 "Hg4 mi
8:00 pm63 °FPassing clouds.14 mph59%30.07 "Hg4 mi
7:30 pm63 °FPartly cloudy.12 mph59%30.07 "Hg4 mi
7:00 pm64 °FPartly cloudy.14 mph56%30.07 "Hg4 mi
6:30 pm64 °FPartly cloudy.12 mph60%30.04 "Hg4 mi
6:00 pm64 °FPartly cloudy.9 mph60%30.04 "Hg4 mi
5:30 pm66 °FBroken clouds.14 mph60%30.01 "Hg4 mi
5:00 pm68 °FBroken clouds.14 mph53%30.01 "Hg4 mi
4:30 pm68 °FPartly sunny.16 mph56%30.01 "Hg4 mi
4:00 pm70 °FScattered clouds.18 mph50%30.01 "Hg4 mi
3:30 pm70 °FSandstorm.21 mph50%30.01 "Hg3 mi
3:00 pm70 °FSandstorm.18 mph50%29.98 "Hg3 mi
2:30 pm70 °FSandstorm.21 mph57%30.01 "Hg3 mi
2:00 pm70 °FSandstorm.18 mph57%30.01 "Hg4 mi
1:30 pm70 °FSandstorm.18 mph57%30.01 "Hg4 mi
12:30 pm70 °FSandstorm.21 mph57%30.04 "Hg3 mi
12:00 pm68 °FBroken clouds.14 mph60%30.04 "Hg3 mi
11:30 am68 °FBroken clouds.14 mph60%30.04 "Hg3 mi
11:00 am68 °FBroken clouds.14 mph64%30.07 "Hg3 mi
10:30 am68 °FBroken clouds.14 mph64%30.07 "Hg3 mi
10:00 am66 °FBroken clouds.14 mph64%30.07 "Hg2 mi
9:30 am66 °FBroken clouds.14 mph64%30.07 "Hg2 mi
9:00 am64 °FFog.7 mph83%30.04 "Hg2 mi
8:30 am64 °FFog.7 mph83%30.04 "Hg2 mi
8:00 am64 °FFog.5 mph83%30.01 "Hg2 mi
7:30 am64 °FFog.No wind83%30.01 "Hg2 mi
7:00 am63 °FFog.5 mph100%29.98 "Hg2 mi
6:30 am63 °FFog.7 mph100%29.98 "Hg2 mi
5:30 am63 °FFog.5 mph100%29.95 "Hg2 mi
Weather by CustomWeather, © 2017

See weather overviewHow to use our weather pages